Regional Weather Roundup
Issued by NWS

Home | Current Version | Previous Version | Graphics & Text | Print | Product List | Glossary On
Versions: 1 2 3 4 5 6 7 8 9 10 11 12 13 14 15 16 17 18 19 20 21 22 23 24 25 26 27 28 29 30 31 32 33 34 35 36 37 38 39 40 41 42 43 44 45 46 47 48 49 50
000
ASUS43 KLSX 231410
RWRMO

WEATHER SUMMARY FOR MISSOURI
NATIONAL WEATHER SERVICE SPRINGFIELD MO
800 AM CST MON JAN 23 2017

NOTE: "FAIR" INDICATES FEW OR NO CLOUDS BELOW 12,000 FEET WITH NO
       SIGNIFICANT WEATHER AND/OR OBSTRUCTIONS TO VISIBILITY.
       CURRENT SKY AND/OR WEATHER CONDITIONS ARE NOT AVAILABLE FOR
       CHILLICOTHE AND FARMINGTON.

MOZ001>031-035>038-043-044-053-054-231500-
...NORTHERN AND WESTERN MISSOURI...

CITY           SKY/WX    TMP DP  RH WIND       PRES   REMARKS
KANSAS CTY INT FOG       31  29  92 N5        29.88F VSB 1/2 WCI  26
KANSAS C DTWN  CLOUDY    32  31  96 NW6       29.90F FOG     WCI  26
LEE`S SUMMIT   FOG       30  30 100 NW9       29.89S VSB 3/4 WCI  22
ST JOSEPH      CLOUDY    31  31 100 N7        29.91S FOG     WCI  24
CHILLICOTHE      N/A     34  30  85 NW6       29.89F WCI  29
KIRKSVILLE     CLOUDY    35  33  92 N6        29.85F

$$
MOZ066>068-077>081-088>096-101>105-231500-
...SOUTHWEST MISSOURI...

CITY           SKY/WX    TMP DP  RH WIND       PRES   REMARKS
SPRINGFIELD    CLOUDY    37  34  89 NW12      29.87R WCI  29
JOPLIN         CLOUDY    36  35  96 W5        29.92S
BRANSON        CLOUDY    37  36  93 NW10      29.88R

$$
MOZ032>034-039>042-045>050-055>058-069>072-231500-
...CENTRAL MISSOURI...

CITY           SKY/WX    TMP DP  RH WIND       PRES   REMARKS
COLUMBIA       CLOUDY    38  36  92 NW8       29.86R
JEFFERSON CITY CLOUDY    39  36  89 NW7       29.87R
ROLLA          CLOUDY    38  35  89 NW9       29.83R
SEDALIA        FOG       36  35  96 N6        29.89R VSB 1
WHITEMAN AFB   FOG       32  32 100 N8        29.88R VSB 1/4 WCI  25
WARRENSBURG    CLOUDY    32  32 100 NW6       29.90R FOG     WCI  26
OSAGE BEACH    CLOUDY    38  35  89 VRB3      29.88R

$$
MOZ051-052-059>065-231500-
...EAST CENTRAL MISSOURI...

CITY           SKY/WX    TMP DP  RH WIND       PRES   REMARKS
ST LOUIS INTL  CLOUDY    42  36  79 NW12      29.83R
SPIRIT OF STL  CLOUDY    41  37  86 NW12      29.83R
ST CHARLES     CLOUDY    41  37  86 NW10      29.83R

$$
MOZ072>076-082>087-097>100-106>115-231500-
...SOUTH CENTRAL AND SOUTHEAST MISSOURI...

CITY           SKY/WX    TMP DP  RH WIND       PRES   REMARKS
CAPE GIRARDEAU CLOUDY    42  35  76 N22G32    29.76R
FARMINGTON     CLOUDY    40  35  83 NW14      29.80S
POPLAR BLUFF   CLEAR     43  35  73 N14       29.77S
WEST PLAINS    CLOUDY    40  34  79 N14G22    29.83R

$$



USA.gov is the U.S. government's official web portal to all federal, state and local government web resources and services.